When you browse on this site, cookies collect data to enhance your experience and personalize the content and advertising you see.
Visit our Privacy Policy to learn more. By continuing to use the site, you agree to this use of cookies and data.
  • In Slovakia
  • List of Countries
  • For 7 days
  • Water Temperature
  • Satellite Maps
  • Weather Map
  • Weather Widgets
  • user-avatar
    Login

    Hourly Weather Brychevo

    Today, 19 February, Tuesday

    Time Temperature Precipitation Wind Pressure Humidity
    00:00 -9°C° 0 mm 2 mps 749 mmHg 89%
    01:00 -9°C° 0 mm 2 mps 749 mmHg 89%
    02:00 -10°C° 0 mm 3 mps 749 mmHg 89%
    03:00 -9°C° 0 mm 3 mps 748 mmHg 88%
    04:00 -10°C° 0 mm 4 mps 747 mmHg 87%
    05:00 -9°C° 0 mm 4 mps 747 mmHg 86%
    06:00 -10°C° 0 mm 5 mps 746 mmHg 83%
    07:00 -10°C° 0 mm 5 mps 746 mmHg 81%
    08:00 -8°C° 0 mm 5 mps 745 mmHg 79%
    09:00 -8°C° 0 mm 6 mps 745 mmHg 76%
    10:00 -6°C° 0 mm 6 mps 744 mmHg 74%
    11:00 -4°C° 0 mm 6 mps 744 mmHg 71%
    12:00 -4°C° 0 mm 6 mps 743 mmHg 72%
    13:00 -3°C° 0 mm 6 mps 743 mmHg 73%
    14:00 -1°C° 0 mm 5 mps 742 mmHg 75%
    15:00 -2°C° 0 mm 5 mps 742 mmHg 76%
    16:00 -2°C° 0 mm 5 mps 741 mmHg 78%
    17:00 -4°C° 0 mm 5 mps 741 mmHg 80%
    18:00 -4°C° 0 mm 5 mps 740 mmHg 82%
    19:00 -5°C° 0 mm 5 mps 740 mmHg 84%
    20:00 -5°C° 0 mm 5 mps 739 mmHg 86%
    21:00 -4°C° 0 mm 6 mps 738 mmHg 87%
    22:00 -4°C° 0 mm 6 mps 738 mmHg 88%
    23:00 -3°C° 0 mm 6 mps 737 mmHg 89%

    Tomorrow, 20 February, Wednesday

    Time Temperature Precipitation Wind Pressure Humidity
    00:00 -3°C° 0 mm 6 mps 736 mmHg 89%
    01:00 -3°C° 0 mm 6 mps 736 mmHg 89%
    02:00 -2°C° 0 mm 6 mps 735 mmHg 89%
    03:00 -2°C° 0.1 mm 6 mps 734 mmHg 89%
    04:00 -1°C° 0.1 mm 5 mps 734 mmHg 90%
    05:00 0°C° 0.1 mm 5 mps 733 mmHg 91%
    06:00 0°C° 0.1 mm 5 mps 733 mmHg 91%
    07:00 0°C° 0.1 mm 5 mps 733 mmHg 92%
    08:00 0°C° 0.1 mm 4 mps 733 mmHg 92%
    09:00 0°C° 0 mm 5 mps 733 mmHg 93%
    10:00 0°C° 0 mm 5 mps 733 mmHg 93%
    11:00 0°C° 0 mm 5 mps 733 mmHg 94%
    12:00 0°C° 0.1 mm 5 mps 733 mmHg 94%
    13:00 0°C° 0.1 mm 5 mps 733 mmHg 94%
    14:00 0°C° 0.1 mm 5 mps 733 mmHg 94%
    15:00 0°C° 0.1 mm 5 mps 732 mmHg 93%
    16:00 0°C° 0.1 mm 4 mps 732 mmHg 92%
    17:00 0°C° 0.1 mm 4 mps 732 mmHg 91%
    18:00 -1°C° 0.1 mm 4 mps 732 mmHg 91%
    19:00 -1°C° 0.1 mm 4 mps 731 mmHg 90%
    20:00 -1°C° 0.1 mm 4 mps 731 mmHg 90%
    21:00 -1°C° 0.5 mm 4 mps 731 mmHg 90%
    22:00 -1°C° 0.5 mm 4 mps 730 mmHg 91%
    23:00 -1°C° 0.5 mm 4 mps 730 mmHg 91%

    Day after tomorrow, 21 February, Thursday

    Time Temperature Precipitation Wind Pressure Humidity
    00:00 -2°C° 0.1 mm 4 mps 730 mmHg 90%
    01:00 -3°C° 0.1 mm 4 mps 730 mmHg 89%
    02:00 -4°C° 0.1 mm 4 mps 730 mmHg 88%
    03:00 -4°C° 0 mm 4 mps 731 mmHg 89%
    04:00 -4°C° 0 mm 3 mps 731 mmHg 90%
    05:00 -4°C° 0 mm 3 mps 731 mmHg 90%
    06:00 -4°C° 0.2 mm 4 mps 731 mmHg 90%
    07:00 -5°C° 0.2 mm 5 mps 732 mmHg 89%
    08:00 -5°C° 0.2 mm 5 mps 732 mmHg 88%
    09:00 -5°C° 0.3 mm 6 mps 733 mmHg 87%
    10:00 -5°C° 0.3 mm 6 mps 733 mmHg 86%
    11:00 -6°C° 0.3 mm 6 mps 733 mmHg 84%
    12:00 -6°C° 0.2 mm 6 mps 734 mmHg 84%
    13:00 -6°C° 0.2 mm 6 mps 735 mmHg 83%
    14:00 -5°C° 0.2 mm 6 mps 735 mmHg 83%
    15:00 -6°C° 0.2 mm 6 mps 736 mmHg 83%
    16:00 -8°C° 0.2 mm 6 mps 737 mmHg 83%
    17:00 -8°C° 0.2 mm 7 mps 737 mmHg 84%
    18:00 -9°C° 0.1 mm 7 mps 738 mmHg 83%
    19:00 -9°C° 0.1 mm 6 mps 740 mmHg 82%
    20:00 -10°C° 0.1 mm 6 mps 741 mmHg 82%
    21:00 -11°C° 0.1 mm 6 mps 741 mmHg 81%
    22:00 -11°C° 0.1 mm 6 mps 742 mmHg 80%
    23:00 -12°C° 0.1 mm 6 mps 743 mmHg 79%

    22 February, Friday

    Time Temperature Precipitation Wind Pressure Humidity
    00:00 -14°C° 0 mm 6 mps 744 mmHg 78%
    01:00 -14°C° 0 mm 6 mps 744 mmHg 78%
    02:00 -15°C° 0 mm 6 mps 745 mmHg 78%
    03:00 -15°C° 0 mm 6 mps 746 mmHg 78%
    04:00 -16°C° 0 mm 6 mps 746 mmHg 78%
    05:00 -16°C° 0 mm 6 mps 747 mmHg 78%
    06:00 -16°C° 0 mm 6 mps 748 mmHg 77%
    07:00 -16°C° 0 mm 6 mps 748 mmHg 77%
    08:00 -16°C° 0 mm 6 mps 749 mmHg 77%
    09:00 -15°C° 0 mm 6 mps 749 mmHg 75%
    10:00 -14°C° 0 mm 7 mps 750 mmHg 74%
    11:00 -13°C° 0 mm 7 mps 750 mmHg 72%
    12:00 -13°C° 0 mm 7 mps 750 mmHg 69%
    13:00 -12°C° 0 mm 7 mps 750 mmHg 67%
    14:00 -11°C° 0 mm 7 mps 750 mmHg 65%
    15:00 -12°C° 0 mm 7 mps 751 mmHg 68%
    16:00 -12°C° 0 mm 6 mps 751 mmHg 72%
    17:00 -12°C° 0 mm 6 mps 751 mmHg 76%
    18:00 -14°C° 0 mm 6 mps 752 mmHg 76%
    19:00 -14°C° 0 mm 6 mps 752 mmHg 77%
    20:00 -15°C° 0 mm 6 mps 753 mmHg 77%
    21:00 -15°C° 0 mm 6 mps 753 mmHg 79%
    22:00 -15°C° 0 mm 5 mps 754 mmHg 80%
    23:00 -15°C° 0 mm 5 mps 754 mmHg 81%

    23 February, Saturday

    Time Temperature Precipitation Wind Pressure Humidity
    00:00 -15°C° 0 mm 5 mps 755 mmHg 81%
    01:00 -15°C° 0 mm 5 mps 755 mmHg 82%
    02:00 -16°C° 0 mm 4 mps 755 mmHg 83%
    03:00 -16°C° 0 mm 4 mps 755 mmHg 84%
    04:00 -16°C° 0 mm 4 mps 755 mmHg 86%
    05:00 -17°C° 0 mm 4 mps 756 mmHg 87%
    06:00 -17°C° 0 mm 4 mps 756 mmHg 88%
    07:00 -17°C° 0 mm 4 mps 756 mmHg 89%
    08:00 -16°C° 0 mm 3 mps 756 mmHg 89%
    09:00 -15°C° 0 mm 3 mps 756 mmHg 86%
    10:00 -15°C° 0 mm 3 mps 756 mmHg 83%
    11:00 -14°C° 0 mm 3 mps 756 mmHg 80%
    12:00 -13°C° 0 mm 3 mps 756 mmHg 77%
    13:00 -12°C° 0 mm 3 mps 756 mmHg 75%
    14:00 -10°C° 0 mm 3 mps 756 mmHg 72%
    15:00 -10°C° 0 mm 2 mps 756 mmHg 76%
    16:00 -12°C° 0 mm 2 mps 756 mmHg 80%
    17:00 -12°C° 0 mm 2 mps 756 mmHg 84%
    18:00 -13°C° 0 mm 2 mps 757 mmHg 85%
    19:00 -11°C° 0 mm 1 mps 757 mmHg 87%
    20:00 -12°C° 0 mm 1 mps 757 mmHg 89%
    21:00 -12°C° 0 mm 1 mps 758 mmHg 90%
    22:00 -12°C° 0 mm 1 mps 758 mmHg 90%
    23:00 -12°C° 0 mm 1 mps 759 mmHg 91%

    24 February, Sunday

    Time Temperature Precipitation Wind Pressure Humidity
    00:00 -12°C° 0 mm 1 mps 759 mmHg 91%
    01:00 -12°C° 0 mm 1 mps 759 mmHg 91%
    02:00 -12°C° 0 mm 1 mps 759 mmHg 92%
    03:00 -12°C° 0 mm 1 mps 759 mmHg 91%
    04:00 -13°C° 0 mm 0 mps 759 mmHg 91%
    05:00 -13°C° 0 mm 0 mps 759 mmHg 91%
    06:00 -12°C° 0 mm 0 mps 760 mmHg 90%
    07:00 -12°C° 0 mm 1 mps 760 mmHg 88%
    08:00 -11°C° 0 mm 1 mps 760 mmHg 87%
    09:00 -10°C° 0 mm 1 mps 760 mmHg 83%
    10:00 -8°C° 0 mm 1 mps 760 mmHg 79%
    11:00 -7°C° 0 mm 1 mps 760 mmHg 75%
    12:00 -7°C° 0 mm 2 mps 759 mmHg 75%
    13:00 -6°C° 0 mm 2 mps 759 mmHg 75%
    14:00 -6°C° 0 mm 2 mps 758 mmHg 74%
    15:00 -7°C° 0 mm 2 mps 758 mmHg 78%
    16:00 -9°C° 0 mm 3 mps 757 mmHg 81%
    17:00 -9°C° 0 mm 3 mps 757 mmHg 85%
    18:00 -9°C° 0 mm 3 mps 756 mmHg 84%
    19:00 -10°C° 0 mm 3 mps 755 mmHg 83%
    20:00 -11°C° 0 mm 4 mps 755 mmHg 82%
    21:00 -10°C° 0 mm 4 mps 754 mmHg 79%
    22:00 -10°C° 0 mm 4 mps 753 mmHg 77%
    23:00 -11°C° 0 mm 5 mps 752 mmHg 74%
    Show more